This is the latest recevied weather packets stored in our database for station/object K3TXT. If no packets are shown the sender has not sent any weather packets the latest 1 day(s).
| Time | Temp. | Humidity | Pressure | Rain* | Wind** | Luminosity | Snow |
|---|---|---|---|---|---|---|---|
| 1777997753 | 22.78° C | 100% | 1020 hPa | 0 mm | 2.24 m/s, 223° | - | - |
| 1777997693 | 22.78° C | 100% | 1019.9 hPa | 0 mm | 1.79 m/s, 221° | - | - |
| 1777997634 | 22.78° C | 100% | 1020 hPa | 0 mm | 1.79 m/s, 225° | - | - |
| 1777997572 | 22.78° C | 100% | 1020 hPa | 0 mm | 1.79 m/s, 130° | - | - |
| 1777997513 | 22.78° C | 100% | 1020 hPa | 0 mm | 1.79 m/s, 225° | - | - |
| 1777997450 | 22.78° C | 100% | 1020 hPa | 0 mm | 1.79 m/s, 215° | - | - |
| 1777997390 | 22.78° C | 100% | 1020 hPa | 0 mm | 1.79 m/s, 212° | - | - |
| 1777997330 | 22.78° C | 100% | 1020 hPa | 0 mm | 2.24 m/s, 229° | - | - |
| 1777997271 | 22.78° C | 100% | 1020 hPa | 0 mm | 2.24 m/s, 223° | - | - |
| 1777997210 | 22.78° C | 100% | 1020.1 hPa | 0 mm | 2.24 m/s, 215° | - | - |
| 1777997150 | 22.78° C | 100% | 1020.1 hPa | 0 mm | 2.24 m/s, 206° | - | - |
| 1777997090 | 22.78° C | 100% | 1020 hPa | 0 mm | 2.68 m/s, 183° | - | - |
| 1777997031 | 22.78° C | 100% | 1020.1 hPa | 0 mm | 2.68 m/s, 100° | - | - |
| 1777996969 | 22.78° C | 100% | 1020.1 hPa | 0 mm | 3.13 m/s, 216° | - | - |
| 1777996846 | 22.78° C | 100% | 1020.1 hPa | 0 mm | 3.13 m/s, 205° | - | - |
| 1777996788 | 22.78° C | 100% | 1020 hPa | 0 mm | 2.68 m/s, 227° | - | - |
| 1777996729 | 22.78° C | 100% | 1020.1 hPa | 0 mm | 2.68 m/s, 229° | - | - |
| 1777996666 | 22.78° C | 100% | 1020.1 hPa | 0 mm | 2.68 m/s, 221° | - | - |
| 1777996608 | 22.78° C | 100% | 1020.1 hPa | 0 mm | 2.68 m/s, 225° | - | - |
| 1777996546 | 22.78° C | 100% | 1019.9 hPa | 0 mm | 2.24 m/s, 225° | - | - |
| 1777996486 | 22.78° C | 100% | 1020 hPa | 0 mm | 2.24 m/s, 228° | - | - |
| 1777996366 | 22.78° C | 100% | 1019.9 hPa | 0 mm | 1.79 m/s, 222° | - | - |
| 1777996307 | 23.33° C | 100% | 1019.9 hPa | 0 mm | 1.79 m/s, 225° | - | - |
| 1777996245 | 23.33° C | 100% | 1019.8 hPa | 0 mm | 1.79 m/s, 222° | - | - |
| 1777996182 | 23.33° C | 100% | 1019.8 hPa | 0 mm | 1.79 m/s, 225° | - | - |
* Rain latest hour (hover to see other rain measurements)
** Current wind speed in m/s (hover to see current wind gust speed)